This is the latest recevied weather packets stored in our database for station/object HB9HFD-13. If no packets are shown the sender has not sent any weather packets the latest 10 day(s).
| Time | Temp. | Humidity | Pressure | Rain* | Wind** | Luminosity | Snow |
|---|---|---|---|---|---|---|---|
| 1778155943 | 16.67° C | 61% | 1011.6 hPa | 0 mm | - | - | - |
| 1778155643 | 17.78° C | 60% | 1011.7 hPa | 0 mm | - | - | - |
| 1778155342 | 18.33° C | 59% | 1011.5 hPa | 0 mm | - | - | - |
| 1778155042 | 18.89° C | 59% | 1011.6 hPa | 0 mm | - | - | - |
| 1778154742 | 18.89° C | 59% | 1011.6 hPa | 0 mm | - | - | - |
| 1778154441 | 18.89° C | 61% | 1011.6 hPa | 0 mm | - | - | - |
| 1778154141 | 18.89° C | 62% | 1011.5 hPa | 0 mm | - | - | - |
| 1778153841 | 18.33° C | 61% | 1011.6 hPa | 0 mm | - | - | - |
| 1778153541 | 18.33° C | 57% | 1011.7 hPa | 0 mm | - | - | - |
| 1778153240 | 18.89° C | 60% | 1011.8 hPa | 0 mm | - | - | - |
| 1778152940 | 18.89° C | 62% | 1011.7 hPa | 0 mm | - | - | - |
| 1778152640 | 18.33° C | 61% | 1011.8 hPa | 0 mm | - | - | - |
| 1778152340 | 18.33° C | 62% | 1011.8 hPa | 0 mm | - | - | - |
| 1778152039 | 18.33° C | 57% | 1011.8 hPa | 0 mm | - | - | - |
| 1778151739 | 18.33° C | 61% | 1011.8 hPa | 0 mm | - | - | - |
| 1778151439 | 17.78° C | 53% | 1011.7 hPa | 0 mm | - | - | - |
| 1778151139 | 17.78° C | 58% | 1011.7 hPa | 0 mm | - | - | - |
| 1778150838 | 17.22° C | 60% | 1011.8 hPa | 0 mm | - | - | - |
| 1778150538 | 17.78° C | 59% | 1011.9 hPa | 0 mm | - | - | - |
| 1778150238 | 17.22° C | 62% | 1011.9 hPa | 0 mm | - | - | - |
| 1778149937 | 17.22° C | 60% | 1012 hPa | 0 mm | - | - | - |
| 1778149637 | 17.78° C | 59% | 1011.9 hPa | 0 mm | - | - | - |
| 1778149337 | 18.33° C | 59% | 1012 hPa | 0 mm | - | - | - |
| 1778149037 | 18.33° C | 60% | 1012 hPa | 0 mm | - | - | - |
| 1778148736 | 17.78° C | 60% | 1012 hPa | 0 mm | - | - | - |
* Rain latest hour (hover to see other rain measurements)
** Current wind speed in m/s (hover to see current wind gust speed)